Date String (YYYY-MM-DD hh:mm:ss) UTC,Instrument flags,Ambient pressure (hPa),Sample flow (lpm),Bypass flow (lpm),Sample temperature (°C),Ambient temperature (°C),ASC tube jacket temperature (°C),LED temperature (°C),Box temperature (°C),Sample RH (%),Span deviation,Mass concentration (μg/m³),Mass concentration (μg/m³),Mass concentration (μg/m³)
DateTimeUTC,F1_M11,P_M11,Q1_M11,Q2_M11,T1_M11,T2_M11,T3_M11,T4_M11,T5_M11,U1_M11,ZSPAN_M11,X0_M11,X2_M11,X1_M11
2022-01-27 06:00:00,,0826.8,5.01,0.00,22.5,21.7,00.0,31.4,24.2,09.6,0002.7,0015.15,0008.90,0008.20
2022-01-27 06:01:00,,0826.8,5.00,0.00,22.5,21.7,00.0,31.4,24.2,09.6,0002.4,0015.78,0008.96,0008.25
2022-01-27 06:02:00,,0826.9,4.99,0.00,22.4,21.7,00.0,31.4,24.2,09.6,0002.2,0015.69,0009.05,0008.33
2022-01-27 06:03:00,,0826.8,5.01,0.00,22.5,21.9,00.0,31.4,24.2,09.5,0002.3,0015.55,0009.10,0008.39
2022-01-27 06:04:00,,0826.8,4.99,0.00,22.6,22.5,00.0,31.5,24.4,09.4,0002.1,0015.75,0009.19,0008.48
2022-01-27 06:05:00,,0826.8,5.00,0.00,22.7,23.2,00.0,31.5,24.7,09.3,0001.8,0015.72,0009.23,0008.51
2022-01-27 06:06:00,,0826.9,5.02,0.00,22.8,23.1,00.0,31.5,24.8,09.2,0002.2,0015.75,0009.25,0008.53
2022-01-27 06:07:00,,0826.7,4.99,0.00,22.8,22.9,00.0,31.6,24.7,09.2,0001.9,0015.67,0009.28,0008.56
2022-01-27 06:08:00,,0826.9,5.01,0.00,22.8,22.8,00.0,31.6,24.7,09.2,0000.9,0015.11,0009.30,0008.58
2022-01-27 06:09:00,,0826.9,4.99,0.00,22.8,22.6,00.0,31.6,24.7,09.2,0000.0,0015.32,0009.32,0008.57
2022-01-27 06:10:00,,0826.8,5.01,0.00,22.8,22.5,00.0,31.6,24.6,09.1,0000.0,0015.19,0009.37,0008.59
2022-01-27 06:11:00,,0826.9,5.00,0.00,22.8,22.4,00.0,31.6,24.6,09.1,0000.4,0015.16,0009.39,0008.66
2022-01-27 06:12:00,,0827.0,5.00,0.00,22.8,22.3,00.0,31.6,24.6,09.1,0001.1,0014.91,0009.42,0008.71
2022-01-27 06:13:00,,0826.8,4.99,0.00,22.8,22.2,00.0,31.6,24.6,09.0,0001.4,0014.74,0009.42,0008.73
2022-01-27 06:14:00,,0826.9,5.00,0.00,22.8,22.2,00.0,31.6,24.6,09.0,0001.8,0014.55,0009.43,0008.75
2022-01-27 06:15:00,,0827.0,4.99,0.00,22.8,22.1,00.0,31.6,24.6,09.1,0001.3,0014.23,0009.42,0008.76
2022-01-27 06:16:00,,0827.0,5.00,0.00,22.7,22.1,00.0,31.6,24.5,09.1,0002.0,0014.15,0009.42,0008.79
2022-01-27 06:17:00,,0826.9,5.00,0.00,22.7,22.0,00.0,31.6,24.5,09.2,0001.6,0014.12,0009.44,0008.81
2022-01-27 06:18:00,,0826.9,5.00,0.00,22.7,22.0,00.0,31.6,24.5,09.2,0001.2,0014.20,0009.47,0008.84
2022-01-27 06:19:00,,0826.9,5.02,0.00,22.7,22.0,00.0,31.6,24.4,09.2,0001.2,0015.40,0009.52,0008.87
2022-01-27 06:20:00,,0826.9,5.00,0.00,22.7,21.9,00.0,31.6,24.4,09.2,0000.0,0015.73,0009.59,0008.90
2022-01-27 06:21:00,,0827.0,4.99,0.00,22.6,21.9,00.0,31.6,24.4,09.3,0000.0,0015.72,0009.59,0008.91
2022-01-27 06:22:00,,0827.0,5.00,0.00,22.6,21.9,00.0,31.6,24.4,09.3,0000.0,0016.38,0009.60,0008.89
2022-01-27 06:23:00,,0827.0,5.00,0.00,22.6,21.9,00.0,31.6,24.3,09.4,0000.0,0016.31,0009.63,0008.88
2022-01-27 06:24:00,,0827.1,5.00,0.00,22.6,21.8,00.0,31.6,24.3,09.4,0000.5,0016.40,0009.61,0008.86
2022-01-27 06:25:00,,0827.0,5.00,0.00,22.6,21.8,00.0,31.5,24.3,09.3,0002.9,0016.71,0009.65,0008.85
2022-01-27 06:26:00,,0827.1,5.01,0.00,22.6,21.8,00.0,31.5,24.3,09.3,0002.8,0016.73,0009.66,0008.83
2022-01-27 06:27:00,,0827.0,5.00,0.00,22.6,21.8,00.0,31.5,24.3,09.4,0002.6,0016.77,0009.66,0008.81
2022-01-27 06:28:00,,0827.0,4.99,0.00,22.5,21.8,00.0,31.5,24.3,09.4,0002.7,0016.85,0009.68,0008.79
2022-01-27 06:29:00,,0827.1,5.00,0.00,22.5,21.8,00.0,31.5,24.2,09.4,0002.4,0016.81,0009.64,0008.76
2022-01-27 06:30:00,,0827.1,4.99,0.00,22.5,21.7,00.0,31.5,24.2,09.5,0001.7,0016.17,0009.59,0008.71
2022-01-27 06:31:00,,0827.0,4.99,0.00,22.5,21.7,00.0,31.5,24.2,09.6,0001.4,0014.86,0009.48,0008.66
2022-01-27 06:32:00,,0826.9,5.00,0.00,22.4,21.7,00.0,31.5,24.2,09.6,0001.3,0014.73,0009.45,0008.63
2022-01-27 06:33:00,,0827.0,5.00,0.00,22.4,21.7,00.0,31.5,24.1,09.5,0001.6,0014.33,0009.47,0008.63
2022-01-27 06:34:00,,0827.0,5.00,0.00,22.5,22.3,00.0,31.5,24.3,09.6,0001.4,0013.68,0009.47,0008.63
2022-01-27 06:35:00,,0827.1,4.99,0.00,22.6,23.0,00.0,31.5,24.5,09.7,0001.5,0013.59,0009.41,0008.58
2022-01-27 06:36:00,,0827.1,5.02,0.00,22.7,23.1,00.0,31.5,24.7,09.7,0000.9,0013.40,0009.32,0008.52
2022-01-27 06:37:00,,0827.0,4.99,0.00,22.7,23.0,00.0,31.5,24.7,09.7,0001.3,0013.30,0009.25,0008.47
2022-01-27 06:38:00,,0827.0,5.01,0.00,22.7,22.8,00.0,31.6,24.6,09.6,0000.9,0013.27,0009.21,0008.45
2022-01-27 06:39:00,,0827.0,4.98,0.00,22.7,22.6,00.0,31.6,24.5,09.7,0001.0,0013.27,0009.20,0008.44
2022-01-27 06:40:00,,0827.0,5.00,0.00,22.7,22.5,00.0,31.6,24.5,09.8,0001.1,0013.26,0009.21,0008.44
2022-01-27 06:41:00,,0827.0,5.00,0.00,22.7,22.3,00.0,31.6,24.5,09.8,0000.9,0013.66,0009.21,0008.47
2022-01-27 06:42:00,,0827.0,5.00,0.00,22.7,22.2,00.0,31.6,24.4,09.8,0000.2,0013.80,0009.22,0008.50
2022-01-27 06:43:00,,0827.1,5.00,0.00,22.7,22.1,00.0,31.6,24.4,09.9,0000.9,0013.61,0009.18,0008.52
2022-01-27 06:44:00,,0827.1,5.00,0.00,22.6,22.1,00.0,31.6,24.4,09.9,0000.8,0013.43,0009.11,0008.50
2022-01-27 06:45:00,,0827.0,5.00,0.00,22.6,22.0,00.0,31.6,24.3,09.9,0000.8,0013.33,0009.06,0008.48
2022-01-27 06:46:00,,0827.1,4.99,0.00,22.6,22.0,00.0,31.6,24.3,09.8,0000.6,0013.36,0009.13,0008.53
2022-01-27 06:47:00,,0827.1,5.01,0.00,22.6,21.9,00.0,31.5,24.3,09.8,0000.9,0013.42,0009.20,0008.59
2022-01-27 06:48:00,,0827.1,5.01,0.00,22.6,21.8,00.0,31.5,24.3,09.8,0001.2,0013.42,0009.27,0008.64
2022-01-27 06:49:00,,0827.1,4.99,0.00,22.5,21.8,00.0,31.5,24.3,09.8,0001.7,0013.61,0009.31,0008.68
2022-01-27 06:50:00,,0827.0,5.00,0.00,22.5,21.8,00.0,31.5,24.2,09.8,0001.9,0013.69,0009.33,0008.72
2022-01-27 06:51:00,,0827.1,5.00,0.00,22.5,21.8,00.0,31.5,24.2,09.8,0002.2,0013.70,0009.34,0008.75
2022-01-27 06:52:00,,0827.1,5.01,0.00,22.5,21.7,00.0,31.5,24.1,09.7,0002.2,0013.52,0009.39,0008.76
2022-01-27 06:53:00,,0827.1,5.00,0.00,22.4,21.7,00.0,31.5,24.1,09.7,0001.8,0013.34,0009.43,0008.77
2022-01-27 06:54:00,,0827.1,5.00,0.00,22.4,21.7,00.0,31.5,24.1,09.7,0001.8,0013.66,0009.46,0008.78
2022-01-27 06:55:00,,0827.1,5.00,0.00,22.4,21.6,00.0,31.5,24.1,09.7,0001.9,0014.40,0009.52,0008.79
2022-01-27 06:56:00,,0827.2,5.00,0.00,22.4,21.6,00.0,31.4,24.0,09.7,0001.8,0014.56,0009.53,0008.80
2022-01-27 06:57:00,,0827.1,5.00,0.00,22.3,21.6,00.0,31.4,24.0,09.7,0002.0,0014.86,0009.54,0008.80
2022-01-27 06:58:00,,0827.1,5.01,0.00,22.3,21.6,00.0,31.4,24.0,09.7,0002.5,0014.92,0009.54,0008.80
2022-01-27 06:59:00,,0827.1,5.00,0.00,22.3,21.6,00.0,31.4,24.0,09.7,0002.4,0015.25,0009.52,0008.77
